| time (UTC) | temp F | wind direction | speed MPH | gust MPH | rain 1hr in | rain 24hr in | rain mn in | humidity % | barometer mb |
| 20260502225512 | 63 | 232 | 2.0 | 7.0 | 0.00 | 0.00 | 0.00 | 72 | 1011.4 |
| 20260502225012 | 63 | 214 | 3.0 | 7.0 | 0.00 | 0.00 | 0.00 | 72 | 1011.5 |
| 20260502224513 | 63 | 229 | 5.0 | 8.0 | 0.00 | 0.00 | 0.00 | 71 | 1011.5 |
| 20260502222012 | 62 | 235 | 0.0 | 4.0 | 0.00 | 0.00 | 0.00 | 74 | 1011.8 |
| 20260502221513 | 62 | 308 | 0.0 | 3.0 | 0.00 | 0.00 | 0.00 | 72 | 1011.9 |
| 20260502221013 | 62 | 221 | 1.0 | 5.0 | 0.00 | 0.00 | 0.00 | 74 | 1011.9 |
| 20260502220513 | 63 | 214 | 1.0 | 5.0 | 0.00 | 0.00 | 0.00 | 71 | 1012.0 |
| 20260502220012 | 63 | 226 | 2.0 | 5.0 | 0.00 | 0.00 | 0.00 | 73 | 1012.1 |
| 20260502215512 | 63 | 246 | 2.0 | 6.0 | 0.00 | 0.00 | 0.00 | 73 | 1012.1 |
| 20260502215012 | 63 | 236 | 0.0 | 6.0 | 0.00 | 0.00 | 0.00 | 72 | 1012.1 |
| 20260502214513 | 62 | 224 | 3.0 | 6.0 | 0.00 | 0.00 | 0.00 | 76 | 1012.1 |
| 20260502214014 | 62 | 197 | 2.0 | 5.0 | 0.00 | 0.00 | 0.00 | 76 | 1012.0 |
| 20260502213512 | 62 | 271 | 0.0 | 5.0 | 0.00 | 0.00 | 0.00 | 75 | 1011.9 |
| 20260502212512 | 60 | 239 | 2.0 | 4.0 | 0.00 | 0.00 | 0.00 | 78 | 1012.3 |
| 20260502211512 | 59 | 229 | 0.0 | 4.0 | 0.00 | 0.00 | 0.00 | 79 | 1012.4 |
| 20260502210512 | 59 | 205 | 0.0 | 6.0 | 0.00 | 0.00 | 0.00 | 76 | 1012.4 |
| 20260502205513 | 58 | 238 | 2.0 | 5.0 | 0.00 | 0.00 | 0.00 | 81 | 1012.6 |
| 20260502205012 | 58 | 226 | 0.0 | 5.0 | 0.00 | 0.00 | 0.00 | 82 | 1012.8 |
| 20260502204518 | 57 | 236 | 0.0 | 3.0 | 0.00 | 0.00 | 0.00 | 80 | 1012.8 |
| 20260502204014 | 57 | 242 | 0.0 | 3.0 | 0.00 | 0.00 | 0.00 | 81 | 1012.9 |
| 20260502202512 | 57 | 193 | 0.0 | 4.0 | 0.00 | 0.00 | 0.00 | 81 | 1012.9 |
| 20260502195512 | 59 | 0 | 0.0 | 5.0 | 0.00 | 0.00 | 0.00 | 77 | 1013.2 |
| 20260502193514 | 60 | 252 | 0.0 | 4.0 | 0.00 | 0.00 | 0.00 | 75 | 1013.1 |
| 20260502192512 | 61 | 207 | 2.0 | 3.0 | 0.00 | 0.00 | 0.00 | 75 | 1013.4 |
| 20260502191512 | 60 | 0 | 0.0 | 0.0 | 0.00 | 0.00 | 0.00 | 76 | 1013.7 |
| 20260502190512 | 60 | 0 | 0.0 | 0.0 | 0.00 | 0.00 | 0.00 | 78 | 1013.5 |
| 20260502190129 | 60 | 0 | 0.0 | 0.0 | 0.00 | 0.00 | 0.00 | 79 | 1013.6 |
| 20260502190012 | 60 | 0 | 0.0 | 0.0 | 0.00 | 0.00 | 0.00 | 79 | 1013.6 |
| 20260502185512 | 59 | 0 | 0.0 | 0.0 | 0.00 | 0.00 | 0.00 | 80 | 1013.8 |
| 20260502184512 | 58 | 0 | 0.0 | 0.0 | 0.00 | 0.00 | 0.00 | 81 | 1014.0 |
| 20260502183512 | 57 | 0 | 0.0 | 0.0 | 0.00 | 0.00 | 0.00 | 82 | 1014.1 |
| 20260502182512 | 57 | 0 | 0.0 | 0.0 | 0.00 | 0.00 | 0.00 | 82 | 1014.1 |
| 20260502182012 | 57 | 0 | 0.0 | 0.0 | 0.00 | 0.00 | 0.00 | 82 | 1014.0 |
| 20260502181512 | 57 | 0 | 0.0 | 0.0 | 0.00 | 0.00 | 0.00 | 83 | 1013.9 |
| 20260502180512 | 56 | 0 | 0.0 | 0.0 | 0.00 | 0.00 | 0.00 | 82 | 1013.9 |
| 20260502170512 | 55 | 0 | 0.0 | 0.0 | 0.00 | 0.00 | 0.00 | 83 | 1014.5 |
| 20260502164012 | 54 | 0 | 0.0 | 0.0 | 0.00 | 0.00 | 0.00 | 86 | 1014.6 |
| 20260502163012 | 53 | 0 | 0.0 | 0.0 | 0.00 | 0.00 | 0.00 | 87 | 1014.7 |
| 20260502162512 | 53 | 0 | 0.0 | 0.0 | 0.00 | 0.00 | 0.00 | 87 | 1014.8 |
| 20260502162012 | 53 | 0 | 0.0 | 0.0 | 0.00 | 0.00 | 0.00 | 87 | 1014.8 |
| 20260502160512 | 53 | 0 | 0.0 | 0.0 | 0.00 | 0.00 | 0.00 | 87 | 1014.9 |
| 20260502152012 | 52 | 0 | 0.0 | 0.0 | 0.00 | 0.00 | 0.00 | 91 | 1014.8 |
| 20260502150512 | 52 | 0 | 0.0 | 0.0 | 0.00 | 0.00 | 0.00 | 91 | 1014.9 |
| 20260502123512 | 51 | 0 | 0.0 | 0.0 | 0.00 | 0.00 | 0.00 | 90 | 1015.1 |
| 20260502123012 | 51 | 0 | 0.0 | 0.0 | 0.00 | 0.00 | 0.00 | 90 | 1015.2 |
| 20260502122512 | 51 | 0 | 0.0 | 0.0 | 0.00 | 0.00 | 0.00 | 90 | 1015.1 |
| 20260502121512 | 51 | 0 | 0.0 | 0.0 | 0.00 | 0.00 | 0.00 | 90 | 1015.3 |
| 20260502121014 | 51 | 0 | 0.0 | 0.0 | 0.00 | 0.00 | 0.00 | 90 | 1015.3 |
| 20260502120511 | 51 | 0 | 0.0 | 0.0 | 0.00 | 0.00 | 0.00 | 90 | 1015.4 |
| 20260502115513 | 51 | 0 | 0.0 | 0.0 | 0.00 | 0.00 | 0.00 | 90 | 1015.3 |
| 20260502114512 | 51 | 0 | 0.0 | 0.0 | 0.00 | 0.00 | 0.00 | 90 | 1015.2 |
| 20260502114013 | 51 | 0 | 0.0 | 0.0 | 0.00 | 0.00 | 0.00 | 90 | 1015.2 |
| 20260502113512 | 51 | 0 | 0.0 | 0.0 | 0.00 | 0.00 | 0.00 | 91 | 1015.2 |
| 20260502112512 | 51 | 0 | 0.0 | 0.0 | 0.00 | 0.00 | 0.00 | 90 | 1015.1 |
| 20260502112012 | 51 | 0 | 0.0 | 0.0 | 0.00 | 0.00 | 0.00 | 90 | 1015.0 |
| 20260502110512 | 51 | 0 | 0.0 | 0.0 | 0.00 | 0.00 | 0.00 | 90 | 1015.2 |
| 20260502110011 | 52 | 0 | 0.0 | 0.0 | 0.00 | 0.00 | 0.00 | 90 | 1015.2 |
| 20260502105511 | 51 | 0 | 0.0 | 0.0 | 0.00 | 0.00 | 0.00 | 90 | 1015.3 |
| 20260502104512 | 52 | 0 | 0.0 | 0.0 | 0.00 | 0.00 | 0.00 | 90 | 1015.3 |
| 20260502103511 | 52 | 0 | 0.0 | 0.0 | 0.00 | 0.00 | 0.00 | 90 | 1015.4 |
| 20260502103011 | 52 | 0 | 0.0 | 0.0 | 0.00 | 0.00 | 0.00 | 90 | 1015.5 |
| 20260502102512 | 52 | 0 | 0.0 | 0.0 | 0.00 | 0.00 | 0.00 | 90 | 1015.4 |
| 20260502100512 | 52 | 0 | 0.0 | 0.0 | 0.00 | 0.00 | 0.00 | 90 | 1015.6 |
| 20260502091012 | 52 | 0 | 0.0 | 0.0 | 0.00 | 0.00 | 0.00 | 89 | 1016.2 |
| 20260502090511 | 52 | 0 | 0.0 | 0.0 | 0.00 | 0.00 | 0.00 | 89 | 1016.2 |
| 20260502071511 | 52 | 0 | 0.0 | 0.0 | 0.00 | 0.00 | 0.00 | 89 | 1016.5 |
| 20260502071011 | 52 | 0 | 0.0 | 0.0 | 0.00 | 0.00 | 0.00 | 89 | 1016.5 |
| 20260502070011 | 52 | 0 | 0.0 | 0.0 | 0.00 | 0.00 | 0.00 | 89 | 1016.5 |
| 20260502065011 | 53 | 0 | 0.0 | 0.0 | 0.00 | 0.00 | 0.00 | 89 | 1016.5 |
| 20260502064511 | 53 | 0 | 0.0 | 0.0 | 0.00 | 0.00 | 0.00 | 89 | 1016.6 |
| 20260502063511 | 52 | 0 | 0.0 | 0.0 | 0.00 | 0.00 | 0.00 | 88 | 1016.6 |
| 20260502063011 | 52 | 0 | 0.0 | 0.0 | 0.00 | 0.00 | 0.00 | 88 | 1016.6 |
| 20260502062511 | 52 | 0 | 0.0 | 0.0 | 0.00 | 0.00 | 0.00 | 88 | 1016.6 |
| 20260502060512 | 53 | 0 | 0.0 | 0.0 | 0.00 | 0.00 | 0.00 | 88 | 1016.6 |
| 20260502055511 | 53 | 0 | 0.0 | 0.0 | 0.00 | 0.00 | 0.00 | 89 | 1016.6 |
| 20260502054511 | 53 | 0 | 0.0 | 0.0 | 0.00 | 0.00 | 0.00 | 88 | 1016.6 |
| 20260502053511 | 53 | 0 | 0.0 | 0.0 | 0.00 | 0.00 | 0.00 | 89 | 1016.6 |
| 20260502053011 | 53 | 0 | 0.0 | 0.0 | 0.00 | 0.00 | 0.00 | 89 | 1016.6 |
| 20260502052511 | 53 | 0 | 0.0 | 0.0 | 0.00 | 0.00 | 0.00 | 88 | 1016.5 |
| 20260502052011 | 53 | 0 | 0.0 | 0.0 | 0.00 | 0.00 | 0.00 | 89 | 1016.5 |
| 20260502051512 | 53 | 0 | 0.0 | 0.0 | 0.00 | 0.00 | 0.00 | 89 | 1016.4 |
| 20260502050511 | 53 | 0 | 0.0 | 0.0 | 0.00 | 0.00 | 0.00 | 88 | 1016.4 |
| 20260502050011 | 53 | 0 | 0.0 | 0.0 | 0.00 | 0.00 | 0.00 | 88 | 1016.4 |
| 20260502045511 | 53 | 0 | 0.0 | 0.0 | 0.00 | 0.00 | 0.00 | 88 | 1016.4 |
| 20260502045012 | 53 | 0 | 0.0 | 0.0 | 0.00 | 0.00 | 0.00 | 88 | 1016.4 |
| 20260502044511 | 53 | 0 | 0.0 | 0.0 | 0.00 | 0.00 | 0.00 | 88 | 1016.4 |
| 20260502044013 | 53 | 0 | 0.0 | 0.0 | 0.00 | 0.00 | 0.00 | 88 | 1016.3 |
| 20260502043511 | 53 | 0 | 0.0 | 0.0 | 0.00 | 0.00 | 0.00 | 88 | 1016.3 |
| 20260502043011 | 53 | 0 | 0.0 | 0.0 | 0.00 | 0.00 | 0.00 | 88 | 1016.3 |
| 20260502042511 | 53 | 0 | 0.0 | 0.0 | 0.00 | 0.00 | 0.00 | 88 | 1016.3 |
| 20260502042011 | 53 | 0 | 0.0 | 0.0 | 0.00 | 0.00 | 0.00 | 88 | 1016.3 |
| 20260502041512 | 53 | 0 | 0.0 | 0.0 | 0.00 | 0.00 | 0.00 | 88 | 1016.3 |
| 20260502040511 | 53 | 0 | 0.0 | 0.0 | 0.00 | 0.00 | 0.00 | 88 | 1016.2 |
| 20260502035511 | 53 | 0 | 0.0 | 3.0 | 0.00 | 0.00 | 0.00 | 88 | 1016.1 |
| 20260502034011 | 53 | 0 | 0.0 | 1.0 | 0.00 | 0.00 | 0.00 | 88 | 1016.0 |
| 20260502033511 | 53 | 0 | 0.0 | 3.0 | 0.00 | 0.00 | 0.00 | 88 | 1016.0 |
| 20260502033011 | 53 | 0 | 0.0 | 3.0 | 0.00 | 0.00 | 0.00 | 88 | 1016.0 |
| 20260502032513 | 53 | 9 | 0.0 | 3.0 | 0.00 | 0.00 | 0.00 | 88 | 1016.0 |
| 20260502032011 | 53 | 354 | 0.0 | 1.0 | 0.00 | 0.00 | 0.00 | 87 | 1016.0 |
| 20260502031511 | 53 | 0 | 0.0 | 0.0 | 0.00 | 0.00 | 0.00 | 87 | 1016.0 |
| 20260502030510 | 53 | 0 | 0.0 | 0.0 | 0.00 | 0.00 | 0.00 | 87 | 1016.0 |
| 20260502030028 | 53 | 331 | 0.0 | 7.0 | 0.00 | 0.00 | 0.00 | 87 | 1016.0 |
| 20260502030011 | 53 | 331 | 0.0 | 7.0 | 0.00 | 0.00 | 0.00 | 87 | 1016.0 |
| 20260502025513 | 53 | 330 | 1.0 | 7.0 | 0.00 | 0.00 | 0.00 | 87 | 1015.9 |
| 20260502023512 | 54 | 333 | 0.0 | 3.0 | 0.00 | 0.00 | 0.00 | 87 | 1015.8 |
| 20260502022511 | 53 | 338 | 0.0 | 3.0 | 0.00 | 0.00 | 0.00 | 88 | 1015.6 |
| 20260502022011 | 53 | 0 | 0.0 | 5.0 | 0.00 | 0.00 | 0.00 | 87 | 1015.7 |
| 20260502021511 | 54 | 329 | 0.0 | 5.0 | 0.00 | 0.00 | 0.00 | 87 | 1015.6 |
| 20260502021011 | 54 | 18 | 0.0 | 5.0 | 0.00 | 0.00 | 0.00 | 87 | 1015.7 |
| 20260502020511 | 54 | 330 | 0.0 | 4.0 | 0.00 | 0.00 | 0.00 | 87 | 1015.6 |
| 20260502020011 | 54 | 322 | 2.0 | 4.0 | 0.00 | 0.00 | 0.00 | 87 | 1015.7 |
| 20260502015513 | 54 | 320 | 0.0 | 4.0 | 0.00 | 0.00 | 0.00 | 87 | 1015.7 |
| 20260502014511 | 54 | 357 | 2.0 | 2.0 | 0.00 | 0.00 | 0.00 | 87 | 1015.8 |
| 20260502013510 | 54 | 319 | 0.0 | 4.0 | 0.00 | 0.00 | 0.00 | 87 | 1015.7 |
| 20260502012510 | 54 | 310 | 0.0 | 4.0 | 0.00 | 0.00 | 0.00 | 88 | 1015.7 |
| 20260502012010 | 54 | 305 | 0.0 | 4.0 | 0.00 | 0.00 | 0.00 | 88 | 1015.7 |
| 20260502011011 | 54 | 330 | 2.0 | 4.0 | 0.00 | 0.00 | 0.00 | 87 | 1015.7 |
| 20260502010510 | 54 | 331 | 0.0 | 3.0 | 0.00 | 0.00 | 0.00 | 87 | 1015.7 |
| 20260502010011 | 54 | 317 | 2.0 | 3.0 | 0.00 | 0.00 | 0.00 | 87 | 1015.6 |
| 20260502005511 | 54 | 344 | 0.0 | 3.0 | 0.00 | 0.00 | 0.00 | 87 | 1015.8 |
| 20260502005011 | 55 | 0 | 0.0 | 0.0 | 0.00 | 0.00 | 0.00 | 87 | 1015.7 |
| 20260502003510 | 55 | 322 | 0.0 | 4.0 | 0.00 | 0.00 | 0.00 | 87 | 1015.7 |
| 20260502002510 | 55 | 327 | 2.0 | 3.0 | 0.00 | 0.00 | 0.00 | 88 | 1015.7 |
| 20260502002011 | 55 | 338 | 0.0 | 3.0 | 0.00 | 0.00 | 0.00 | 87 | 1015.7 |
| 20260502000511 | 55 | 308 | 1.0 | 3.0 | 0.00 | 0.00 | 0.00 | 87 | 1015.7 |
| 20260502000012 | 55 | 316 | 0.0 | 2.0 | 0.00 | 0.00 | 0.00 | 87 | 1015.7 |
| 20260501235511 | 55 | 348 | 0.0 | 1.0 | 0.00 | 0.00 | 0.00 | 87 | 1015.7 |
| 20260501234011 | 55 | 23 | 0.0 | 5.0 | 0.00 | 0.00 | 0.00 | 86 | 1015.7 |
| 20260501232510 | 56 | 329 | 0.0 | 3.0 | 0.00 | 0.00 | 0.00 | 86 | 1015.8 |
| 20260501232011 | 56 | 317 | 2.0 | 3.0 | 0.00 | 0.00 | 0.00 | 86 | 1015.8 |
| 20260501231011 | 56 | 319 | 0.0 | 2.0 | 0.00 | 0.00 | 0.00 | 85 | 1015.9 |
| 20260501230512 | 56 | 331 | 0.0 | 5.0 | 0.00 | 0.00 | 0.00 | 85 | 1015.9 |